Great Australia Day Swim
Skip Navigation Links
Race Results
Leaderboard
Race Stats
26 January 2014
HyperLink
Page 1 of 3 (149 items)
[1]23
Pos
Race No
Fav
Name
Time
Category
Cat Pos
Gender
Gen Pos
Dist Done
Pace
1169Dean WILSON1:01:4812-171Male1012:21 min/km
2679Jamie GUEROW1:02:5130-391Male2012:34 min/km
3702Ben MACKINNON1:07:4830-392Male3013:33 min/km
4718Andrew O'CONNOR1:09:1218-291Male4013:50 min/km
5730Tom RODGERS1:09:3318-292Male5013:54 min/km
6723Hilario REAL1:11:3018-293Male6014:18 min/km
7715Kate MURPHY1:11:3730-391Female1014:19 min/km
8794Andrew JACOBS1:13:1440-491Male7014:38 min/km
9739Leigh STABRYLA1:13:1818-294Male8014:39 min/km
10631Damien ANGUS1:13:2930-393Male9014:41 min/km
11725Chris REED1:13:4218-295Male10014:44 min/km
12744Hannah THOMAS1:14:1712-171Female2014:51 min/km
13700Shane LEWIS1:14:2140-492Male11014:52 min/km
14743Wendy TEMPELS1:14:2218-291Female3014:52 min/km
15755Matilda VIDLER1:14:2312-172Female4014:52 min/km
16166Neroli NIXON1:14:5550-591Female5014:59 min/km
17651Andrew CAREY1:15:0430-394Male12015:00 min/km
18664Adam DEW1:15:1040-493Male13015:02 min/km
19163Bill LINEHAN1:15:2250-591Male14015:04 min/km
20636Peter BARKER1:16:5330-395Male15015:22 min/km
21642Jean-Luc BOULANGER1:17:2750-592Male16015:29 min/km
22682Kip HOMEWOOD1:17:3050-593Male17015:30 min/km
23757Michael WEINER1:17:3750-594Male18015:31 min/km
24695Sean KIRWAN1:17:4540-494Male19015:33 min/km
25710Ryann MILLS1:18:1930-396Male20015:39 min/km
26714Darren MUMFORD1:18:4940-495Male21015:45 min/km
27692Simon JOHNSON1:18:5530-397Male22015:47 min/km
28168Keely WILLIAMS1:19:0912-173Female6015:49 min/km
29691Kendra JEWELL1:19:1612-174Female7015:51 min/km
30952Mark MCCLELLAND1:19:5850-595Male23015:59 min/km
31802Jacqui HANSEN1:20:2340-491Female8016:04 min/km
32728Michael ROCHFORD1:20:5640-496Male24016:11 min/km
33160Paul HOFFMAN1:21:0240-497Male25016:12 min/km
34686Peter HOUWEN1:21:0950-596Male26016:13 min/km
35674Adam FREDERICK1:21:1140-498Male27016:14 min/km
36635Peter BARDOEL1:21:1650-597Male28016:15 min/km
37701Liz LIBERTS1:21:2530-392Female9016:17 min/km
38722Richard POULTER1:21:4250-598Male29016:20 min/km
39726Corey RICH1:22:1112-172Male30016:26 min/km
40748Liz TOSH1:22:1518-292Female10016:27 min/km
41667Michael DYE1:22:1750-599Male31016:27 min/km
42750John TREGASKIS1:22:2240-499Male32016:28 min/km
43697Jasper KJAR-CRUTTENDEN1:25:0118-296Male33017:00 min/km
44727Mark RICHARDS1:25:0930-398Male34017:01 min/km
45741Glenn STOREY1:25:1240-4910Male35017:02 min/km
46661Brett DAVIS1:25:1550-5910Male36017:03 min/km
47645Kirsty BRADBEER1:25:2030-393Female11017:04 min/km
48776Tony RYAN1:25:2150-5911Male37017:04 min/km
49796Daniel WILMANN1:25:2730-399Male38017:05 min/km
50798Gerard ROBB1:25:2930-3910Male39017:05 min/km
Page 1 of 3 (149 items)
[1]23
fb

HyperLink Copyright (c) G Vincent, 2017